Regional Weather Roundup
Issued by NWS

Home | Current Version | Previous Version | Graphics & Text | Print | Product List | Glossary On
Versions: 1 2 3 4 5 6 7 8 9 10 11 12 13 14 15 16 17 18 19 20 21 22 23 24 25 26 27 28 29 30 31 32 33 34 35 36 37 38 39 40 41 42 43 44 45 46 47 48 49 50
000
ASUS43 KMPX 201101
RWRMN
WEATHER ROUNDUP FOR MINNESOTA
NATIONAL WEATHER SERVICE TWIN CITIES/CHANHASSEN MN
600 AM CDT SAT SEP 20 2014


NOTE: "FAIR" INDICATES FEW OR NO CLOUDS BELOW 12,000 FEET WITH NO
SIGNIFICANT WEATHER AND/OR OBSTRUCTIONS TO VISIBILITY. N/A MEANS
CURRENT SKY AND/OR WEATHER CONDITIONS ARE NOT AVAILABLE.

MNZ060>063-068>070-201200-
   Twin Cities Metro

CITY           SKY/WX    TMP DP  RH WIND       PRES   REMARKS
TWIN CITIES    CLOUDY    67  64  90 SW10      29.72R
ST PAUL        CLOUDY    67  64  90 W8        29.72R
CRYSTAL        MOCLDY    68  61  78 W7        29.71R
BLAINE         MOCLDY    70  64  83 SW7       29.71R
LAKEVILLE      CLOUDY    66  63  88 SW7       29.73S
EDEN PRAIRIE   MOCLDY    66  64  93 SW8       29.72R
SOUTH ST PAUL  CLOUDY    68  64  84 W8        29.71S
LAKE ELMO      FAIR      68  64  88 W8        29.72R
$$
MNZ001>005-007-008-013>017-022>024-027-028-201200-
   Northwest Minnesota

CITY           SKY/WX    TMP DP  RH WIND       PRES   REMARKS
BEMIDJI        CLOUDY    54  52  91 NW10G17   29.75S
HALLOCK        MOCLDY    52  50  93 NW5       29.75S
ROSEAU         CLEAR     52  46  82 W5        29.74R
WARROAD        CLEAR     48  45  87 W5        29.74R
THIEF RVR FALL CLOUDY    54  52  94 NW8       29.76R
CROOKSTON      CLOUDY    55  54  94 NW7       29.79R
FOSSTON        CLOUDY    54  52  94 CALM      29.78R
DETROIT LAKES  CLOUDY    55  54  94 NW6       29.81R
MOORHEAD       CLEAR     54  54 100 CALM      29.81R FOG
PARK RAPIDS    CLEAR     55  52  89 NW13      29.76R
MAHNOMEN       CLOUDY    55  54  94 W3        29.78R
$$
MNZ006-009>011-018-025>026-201200-
   North Central Minnesota

CITY           SKY/WX    TMP DP  RH WIND       PRES   REMARKS
BAUDETTE       CLOUDY    53  48  83 NW9       29.71R
FLAG ISLAND    CLOUDY    52  48  87 NW15      29.69R
INTL FALLS     CLOUDY    56  55  97 NW8       29.66R FOG
WASKISH        CLOUDY    55  52  88 CALM      29.73R
BIG FORK       CLOUDY    57  54  88 CALM      29.70R
LONGVILLE      CLOUDY    57  54  88 NW5       29.72R
GRAND RAPIDS   CLOUDY    57  54  88 NW14G22   29.70R
CRANE LAKE     CLOUDY    57  57 100 W3        29.64R
ORR            CLOUDY    57  54  88 W9G16     29.63R FOG
COOK           CLOUDY    59  57  94 W13       29.66R
WALKER         FAIR      53  51  92 NW7       29.75R
$$
MNZ012-019>021-037-201200-
   Northeast Minnesota

CITY           SKY/WX    TMP DP  RH WIND       PRES   REMARKS
DULUTH         MOCLDY    63  59  87 NW16G22   29.62R
ELY            CLOUDY    59  57  94 W10G21    29.61R
HIBBING        CLOUDY    60  56  86 NW10      29.65R
EVELETH        CLOUDY    59  57  94 W12G23    29.65R
DULUTH HARBOR  MOCLDY    64  61  88 W17       29.60R
TWO HARBORS    PTCLDY    63  57  82 W7        29.57R
SILVER BAY     MOCLDY    59  59 100 CALM      29.56R FOG
GRAND MARAIS     N/A     55  54  96 VRB3      29.53S
G MARAIS ARPRT FOG       59  55  88 W3        29.58R VSB 1
$$
MNZ029>031-032-039>041-046>048-054>057-064-201200-
   West Central Minnesota

CITY           SKY/WX    TMP DP  RH WIND       PRES   REMARKS
FERGUS FALLS   CLOUDY    57  55  94 NW8       29.81R
WHEATON        CLEAR     54  52  94 CALM      29.83S
MORRIS         CLEAR     55  54  94 NW7       29.81R
ALEXANDRIA     PTCLDY    58  56  93 W8        29.80R
ELBOW LAKE     CLOUDY    57  55  94 NW10      29.81R
WADENA         CLEAR     57  55  94 W7        29.77R
GLENWOOD       PTCLDY    57  55  94 W7        29.80R
APPLETON       CLEAR     55  54  94 W6        29.82R
BENSON         PTCLDY    55  55 100 N6        29.81R
ORTONVILLE     CLEAR     61  55  82 NW7       29.82R
MADISON        CLEAR     61  57  88 NW7       29.82R
WILLMAR        FAIR      59  54  82 W8        29.81R
$$
MNZ033>034-036-042>043-049>051-058-059-201200-
   Central Minnesota

CITY           SKY/WX    TMP DP  RH WIND       PRES   REMARKS
ST CLOUD       PTCLDY    62  57  83 NW16G23   29.75R
SAUK CENTRE    CLOUDY    58  56  94 W6        29.79R
PAYNESVILLE    CLEAR     56  55  96 SW9       29.78R
AITKIN         MOCLDY    63  57  82 CALM      29.69R
PINE RIVER     CLEAR     57  55  94 W3        29.77R
BRAINERD       CLEAR     58  56  93 NW7       29.73R
STAPLES        CLEAR     55  55 100 W7        29.75R
LONG PRAIRIE   CLOUDY    59  55  88 W5        29.78R
LITTLE FALLS   PTCLDY    59  55  88 W6        29.75R
LITCHFIELD     PTCLDY    63  61  94 W6        29.77R
BUFFALO        PTCLDY    62  58  86 W5        29.74R
MAPLE LAKE     PTCLDY    62  59  87 W6        29.75R
$$
MNZ037-044-045-052-053-201200-
   East Central Minnesota

CITY           SKY/WX    TMP DP  RH WIND       PRES   REMARKS
PRINCETON      PTCLDY    63  59  88 W9        29.72R
MORA           CLOUDY    61  57  88 NW10      29.72R
CAMBRIDGE      PTCLDY    64  55  72 W5        29.69R
RUSH CITY      MOCLDY    62  59  91 W6        29.69R
MOOSE LAKE     MOCLDY    61  59  94 W10       29.66R
HINCKLEY       CLOUDY    63  61  94 NW7       29.68R
CLOQUET        MOCLDY    61  59  94 W12       29.65R
MCGREGOR       CLOUDY    61  59  94 NW9       29.68S
$$
MNZ071>073-080-081-089-090-097-098-201200-
   Southwest Minnesota

CITY           SKY/WX    TMP DP  RH WIND       PRES   REMARKS
MONTEVIDEO     PTCLDY    59  55  88 N6        29.82R
GRANITE FALLS  PTCLDY    56  55  95 W7        29.83R
CANBY          CLEAR     59  56  88 W6        29.85R
MARSHALL       PTCLDY    59  54  82 NW9       29.82R
REDWOOD FALLS  MOCLDY    62  56  80 NW12      29.79R
OLIVIA         PTCLDY    59  54  82 NW9       29.79R
PIPESTONE      CLOUDY    63  55  77 NW8       29.86R
WINDOM         LGT RAIN  64  61  88 W8        29.82R
WORTHINGTON    CLOUDY    64  57  77 NW8       29.85R
JACKSON        CLOUDY    64  61  88 W3        29.82R
TRACY          MOCLDY    62  57  83 CALM      29.84R
SLAYTON        MOCLDY    61  57  87 CALM      29.85R
$$
MNZ065>067-074>077-082>085-091>093-201200-
   South Central Minnesota

CITY           SKY/WX    TMP DP  RH WIND       PRES   REMARKS
MANKATO        CLOUDY    66  61  82 SW8       29.77R
NEW ULM        MOCLDY    63  61  94 W8        29.78R
ST JAMES       LGT RAIN  66  63  88 W6        29.80R
FAIRMONT       CLOUDY    64  57  77 SW6       29.80S
GLENCOE        MOCLDY    63  57  81 W5        29.75R
FARIBAULT      CLOUDY    68  61  77 SW8       29.76S
OWATONNA       CLOUDY    64  61  88 SW8       29.76F
WASECA         CLOUDY    63  57  82 SW9       29.78F
ALBERT LEA     CLOUDY    64  63  94 SW9       29.79R
$$
MNZ078>079-086>088-094>096-201200-
   Southeast Minnesota

CITY           SKY/WX    TMP DP  RH WIND       PRES   REMARKS
ROCHESTER      CLOUDY    64  61  90 SW15G21   29.78S
RED WING       CLOUDY    70  64  83 W6        29.71R
STANTON        CLOUDY    67  63  85 SW13      29.73S
DODGE CENTER   CLOUDY    64  63  94 SW12      29.77S
WINONA         CLOUDY    68  64  88 W7        29.74S
AUSTIN         CLOUDY    63  61  94 SW10      29.73R
PRESTON        CLOUDY    63  63 100 SW12      29.78S
$$
ABBREVIATIONS USED IN REMARKS
   TC - TEMPERATURES IN CELSIUS
  WCI - WIND CHILL INDEX
   HX - HEAT INDEX
  VSB - VISIBILITY
$$


USA.gov is the U.S. government's official web portal to all federal, state and local government web resources and services.